[[{"header":{"parameterUnit":"m.s-1","parameterCategory":1,"la1":30.2991,"la2":30.254,"lo1":-89.0895,"lo2":-89.0444,"dy":0.0017,"dx":0.0017,"nx":28,"ny":28,"refTime":"2024-08-04T03:00:00:Z","depth":0,"parameterNumber":2,"parameterNumberName":"U-component_of_WINDS"},"data":[0,0,0,0,0,0,0,0,0,0,0,0,0,0,0,0,0,0,0,0,0,0,0,0,0,0,0,0,0,0,0,0,0,0,0,0,0,0,0,0,0,0,0,0,0,0,0,0,0,0,0,0,0,0,0,0,0,0,-0.2304,-0.2304,0,-0.2295,-0.2295,-0.2294,-0.2343,-0.2345,-0.2346,-0.2347,-0.2338,-0.2337,-0.2335,0,0,0,0,0,0,0,0,0,0,0,0,0,-0.2366,-0.2364,-0.2304,-0.2304,-0.2304,-0.2295,-0.2295,-0.2294,-0.2343,-0.2345,-0.2346,-0.2348,-0.2339,-0.2337,-0.2335,0,0,0,0,0,0,0,0,0,0,0,0,0,-0.2346,-0.2364,-0.2304,-0.2327,-0.2329,-0.2295,-0.2295,-0.2294,-0.2343,-0.2345,-0.2347,-0.2349,-0.2339,-0.2337,-0.2335,-0.2278,0,0,-0.2327,-0.2326,0,0,0,0,0,0,0,0,-0.2347,-0.2343,-0.2324,-0.2325,-0.2328,-0.2322,-0.2313,-0.2289,-0.2342,-0.2337,-0.2347,-0.235,-0.2331,-0.233,-0.2323,-0.2278,-0.2277,-0.2327,-0.2326,-0.2325,-0.2324,0,0,0,0,0,0,0,-0.2348,-0.2344,-0.2301,-0.2324,-0.2326,-0.2338,-0.2338,-0.2309,-0.2323,-0.2338,-0.2341,-0.234,-0.2333,-0.2325,-0.2323,-0.2277,-0.2327,-0.2325,-0.2324,-0.2323,-0.2184,-0.2182,0,0,0,0,0,0,-0.2346,-0.2345,-0.2301,-0.23,-0.2343,-0.2335,-0.2335,-0.2322,-0.2323,-0.2325,-0.2338,-0.2342,-0.2328,-0.2326,-0.2323,-0.2256,-0.2325,-0.2323,-0.2321,-0.2186,-0.2183,-0.2181,0,0,0,0,0,0,-0.2347,-0.2342,-0.2301,-0.2324,-0.2319,-0.2332,-0.2317,-0.2321,-0.2313,-0.2323,-0.2326,-0.2328,-0.233,-0.2326,-0.2289,-0.2256,-0.2322,-0.232,-0.2189,-0.2185,-0.2182,-0.2121,0,0,0,0,0,0,-0.2349,-0.2342,-0.232,-0.2323,-0.2318,-0.2266,-0.2315,-0.2319,-0.2309,-0.2314,-0.2314,-0.2316,-0.2331,-0.2292,-0.2286,-0.2254,-0.2318,-0.2192,-0.2187,-0.2183,-0.2126,-0.2116,-0.2108,0,0,0,0,0,-0.2351,-0.2304,-0.2319,-0.2313,-0.2291,-0.2264,-0.2262,-0.228,-0.2306,-0.2285,-0.2291,-0.2316,-0.2261,-0.2288,-0.2282,-0.2248,-0.2194,-0.2189,-0.2184,-0.213,-0.2118,-0.2108,0,0,0,0,0,0,-0.2298,-0.2305,-0.2321,-0.2274,-0.2268,-0.2273,-0.2246,-0.2266,-0.2253,-0.2259,-0.2282,-0.2282,-0.2239,-0.2241,-0.227,-0.2193,-0.2232,-0.2226,-0.2194,-0.2182,-0.2173,-0.2173,-0.2316,0,0,0,0,0,-0.2281,-0.2258,-0.2266,-0.2223,-0.2219,-0.2233,-0.2222,-0.2236,-0.2231,-0.2229,-0.2233,-0.2227,-0.2209,-0.2196,-0.218,-0.2127,-0.2127,-0.2102,-0.2092,-0.2085,-0.2078,-0.2049,-0.2038,-0.2164,-0.2164,-0.2164,0,0,-0.2245,-0.2246,-0.223,-0.2212,-0.221,-0.2185,-0.2231,-0.2204,-0.2186,-0.2225,-0.2189,-0.2192,-0.2187,-0.2141,-0.2122,-0.2141,-0.2044,-0.2078,-0.2072,-0.2069,-0.2043,-0.2031,-0.202,-0.216,-0.2161,-0.2162,0,0,-0.2167,-0.2166,-0.2129,-0.2126,-0.2121,-0.213,-0.2121,-0.2123,-0.2126,-0.209,-0.2119,-0.2099,-0.2067,-0.2062,-0.2055,-0.1975,-0.1997,-0.1969,-0.192,-0.1892,-0.1882,-0.1873,-0.1843,-0.1832,-0.1963,-0.1963,-0.1963,0,-0.2123,-0.2087,-0.2108,-0.2079,-0.207,-0.2104,-0.2067,-0.2063,-0.2053,-0.2046,-0.2068,-0.2028,-0.2028,-0.1981,-0.1961,-0.1955,-0.1945,-0.1968,-0.1881,-0.1873,-0.1865,-0.1837,-0.1825,-0.1959,-0.196,-0.196,-0.1961,0,-0.2033,-0.2008,-0.1979,-0.1968,-0.1956,-0.1923,-0.1939,-0.1924,-0.194,-0.1947,-0.191,-0.1911,-0.1894,-0.1885,-0.19,-0.184,-0.1852,-0.1877,-0.1916,-0.1849,-0.1823,-0.1812,-0.1954,-0.1956,-0.1957,-0.1958,0,0,-0.192,-0.192,-0.1909,-0.1904,-0.1901,-0.1882,-0.1851,-0.1835,-0.1821,-0.1814,-0.1787,-0.176,-0.1783,-0.1775,-0.1791,-0.1766,-0.1701,-0.1795,-0.1795,-0.1776,-0.1633,-0.1612,-0.1599,-0.1717,-0.1715,-0.1713,-0.1633,0,-0.1842,-0.1787,-0.1805,-0.175,-0.1726,-0.1759,-0.1732,-0.1728,-0.1734,-0.1715,-0.1722,-0.1701,-0.1735,-0.173,-0.1708,-0.1714,-0.1672,-0.172,-0.1692,-0.169,-0.1689,-0.1586,-0.1564,-0.1487,-0.1623,-0.1621,-0.162,0,-0.1743,-0.173,-0.1672,-0.1673,-0.1664,-0.1639,-0.1625,-0.1607,-0.1602,-0.1609,-0.16,-0.162,-0.159,-0.163,-0.1588,-0.162,-0.161,-0.1611,-0.1609,-0.1605,-0.1649,-0.1577,-0.1464,-0.1451,-0.1604,-0.1605,-0.1606,0,-0.1664,-0.1633,-0.1594,-0.1589,-0.1589,-0.157,-0.1569,-0.1567,-0.1556,-0.1544,-0.1537,-0.1522,-0.1514,-0.1502,-0.1518,-0.1546,-0.1472,-0.1515,-0.1476,-0.1475,-0.1457,-0.1458,-0.1338,-0.1454,-0.1454,-0.1454,-0.1455,0,-0.1574,-0.1536,-0.1558,-0.1534,-0.1493,-0.1514,-0.1474,-0.1477,-0.1475,-0.1451,-0.148,-0.1458,-0.1481,-0.1462,-0.1474,-0.1436,-0.1433,-0.1436,-0.144,-0.1433,-0.1432,-0.1425,-0.143,-0.1451,-0.1452,-0.1453,-0.1453,0,-0.1477,-0.1491,-0.145,-0.1453,-0.1453,-0.1423,-0.1426,-0.1404,-0.1412,-0.1383,-0.1377,-0.139,-0.1368,-0.1383,-0.1362,-0.137,-0.132,-0.1332,-0.1321,-0.1323,-0.1283,-0.1286,-0.1153,-0.1136,-0.1264,-0.1263,-0.1262,0,-0.1418,-0.139,-0.139,-0.1376,-0.1373,-0.1351,-0.134,-0.136,-0.1347,-0.134,-0.1318,-0.1299,-0.1284,-0.1247,-0.1255,-0.1238,-0.1249,-0.1204,-0.1247,-0.124,-0.1246,-0.1247,-0.1243,-0.1194,-0.1193,-0.1191,-0.1191,0,-0.131,-0.1318,-0.13,-0.1284,-0.1269,-0.1258,-0.1249,-0.1237,-0.1257,-0.1241,-0.1219,-0.1207,-0.1185,-0.1164,-0.1151,-0.1151,-0.1173,-0.1177,-0.1167,-0.1158,-0.1152,-0.1153,-0.1295,-0.118,-0.1181,-0.1182,-0.1182,-0.1183,-0.123,-0.1206,-0.1202,-0.118,-0.1176,-0.1167,-0.1145,-0.1151,-0.1132,-0.1115,-0.1129,-0.1102,-0.1098,-0.1082,-0.1079,-0.1058,-0.1076,-0.1062,-0.1058,-0.1054,-0.1047,-0.1157,-0.1056,-0.1056,-0.1056,-0.1057,-0.1057,0,-0.1122,-0.1121,-0.1101,-0.1087,-0.107,-0.1094,-0.1085,-0.107,-0.1045,-0.104,-0.1024,-0.0998,-0.0979,-0.0985,-0.0968,-0.095,-0.096,-0.0944,-0.0945,-0.0944,-0.1032,-0.1042,-0.0936,-0.0936,-0.0936,-0.0936,-0.0936,-0.0936,-0.1064,-0.1024,-0.1031,-0.0989,-0.0989,-0.0962,-0.0955,-0.0946,-0.0942,-0.0911,-0.0895,-0.0899,-0.0898,-0.0881,-0.0864,-0.0867,-0.0858,-0.0838,-0.0844,-0.0926,-0.0938,-0.0949,-0.0958,-0.0837,-0.0837,-0.0758,-0.0757,-0.0756]},{"header":{"parameterUnit":"m.s-1","parameterCategory":1,"la1":30.2991,"la2":30.254,"lo1":-89.0895,"lo2":-89.0444,"dy":0.0017,"dx":0.0017,"nx":28,"ny":28,"refTime":"2024-08-04T03:00:00:Z","depth":0,"parameterNumber":3,"parameterNumberName":"V-component_of_WINDS"},"data":[0,0,0,0,0,0,0,0,0,0,0,0,0,0,0,0,0,0,0,0,0,0,0,0,0,0,0,0,0,0,0,0,0,0,0,0,0,0,0,0,0,0,0,0,0,0,0,0,0,0,0,0,0,0,0,0,0,0,0.0708,0.0709,0,0.0812,0.0814,0.0815,0.0754,0.0751,0.0748,0.0745,0.0863,0.0869,0.0875,0,0,0,0,0,0,0,0,0,0,0,0,0,0.0462,0.0467,0.0707,0.0709,0.071,0.0812,0.0814,0.0815,0.0754,0.0751,0.0747,0.0744,0.0861,0.0868,0.0875,0,0,0,0,0,0,0,0,0,0,0,0,0,0.0568,0.0469,0.0707,0.0692,0.0691,0.0812,0.0814,0.0816,0.0755,0.0751,0.0746,0.0742,0.0859,0.0868,0.0876,0.1021,0,0,0.0904,0.0907,0,0,0,0,0,0,0,0,0.0562,0.0578,0.0693,0.0693,0.0693,0.0765,0.077,0.0885,0.0756,0.0731,0.0745,0.074,0.0835,0.0846,0.0875,0.1027,0.1032,0.0904,0.091,0.0914,0.0916,0,0,0,0,0,0,0,0.0555,0.0573,0.0749,0.0695,0.0695,0.0682,0.0692,0.0792,0.0808,0.0733,0.0729,0.0742,0.0834,0.0867,0.0878,0.1034,0.0904,0.0912,0.0918,0.0921,0.1308,0.1313,0,0,0,0,0,0,0.0548,0.0567,0.0746,0.0752,0.0615,0.069,0.0701,0.0747,0.0806,0.0811,0.0745,0.0738,0.0854,0.0867,0.0882,0.1054,0.0914,0.0922,0.0927,0.1303,0.1309,0.1314,0,0,0,0,0,0,0.0543,0.0564,0.0742,0.0659,0.068,0.0699,0.0751,0.0751,0.0784,0.0815,0.0818,0.0775,0.0851,0.0869,0.0986,0.1058,0.0926,0.0934,0.1297,0.1305,0.1312,0.1402,0,0,0,0,0,0,0.0536,0.0563,0.0616,0.066,0.0685,0.0842,0.0755,0.0756,0.0798,0.079,0.0844,0.0849,0.0849,0.0973,0.0995,0.1068,0.0941,0.1291,0.1301,0.1309,0.1393,0.1412,0.1428,0,0,0,0,0,0.0527,0.0641,0.0619,0.0642,0.0752,0.0846,0.0861,0.0855,0.0804,0.0859,0.0879,0.0847,0.1046,0.0985,0.101,0.1086,0.1286,0.1298,0.1309,0.1385,0.1408,0.1427,0,0,0,0,0,0,0.061,0.0646,0.0623,0.0753,0.0797,0.0836,0.0906,0.088,0.0942,0.0932,0.0925,0.0938,0.106,0.1084,0.1016,0.1229,0.1159,0.1175,0.1208,0.123,0.1247,0.124,0.0948,0,0,0,0,0,0.0642,0.0713,0.0742,0.0854,0.0876,0.0887,0.0928,0.0919,0.0966,0.0985,0.1013,0.1062,0.1135,0.1184,0.1253,0.1395,0.1407,0.146,0.1477,0.1491,0.1506,0.1583,0.1606,0.1351,0.1351,0.135,0,0,0.0712,0.074,0.0786,0.0871,0.0904,0.098,0.0904,0.0988,0.1044,0.0999,0.111,0.1132,0.1186,0.1316,0.1374,0.134,0.1579,0.1505,0.1516,0.1524,0.1596,0.1621,0.1642,0.1358,0.1357,0.1356,0,0,0.0877,0.0905,0.1,0.1033,0.1082,0.1088,0.111,0.1153,0.1165,0.1275,0.1242,0.131,0.1437,0.1476,0.1512,0.1688,0.1662,0.1711,0.1804,0.1878,0.1898,0.1916,0.1979,0.2002,0.1726,0.1726,0.1726,0,0.0958,0.1068,0.1054,0.1139,0.1178,0.1135,0.1233,0.1267,0.1337,0.1366,0.1326,0.1481,0.1515,0.1652,0.1694,0.1725,0.1753,0.1706,0.1895,0.1913,0.193,0.199,0.2014,0.1732,0.1731,0.173,0.173,0,0.1165,0.1242,0.1314,0.1378,0.1425,0.1516,0.1518,0.1567,0.1554,0.1564,0.1677,0.1714,0.179,0.1821,0.1811,0.1958,0.1935,0.1895,0.1825,0.196,0.2017,0.204,0.174,0.1738,0.1736,0.1735,0,0,0.1389,0.144,0.1467,0.1495,0.1544,0.1604,0.1694,0.1763,0.1805,0.1855,0.1931,0.2036,0.1999,0.204,0.2034,0.2098,0.2235,0.2051,0.2052,0.2084,0.2399,0.2429,0.2456,0.2216,0.2221,0.2224,0.2394,0,0.1558,0.171,0.1698,0.1844,0.1915,0.1873,0.1951,0.1991,0.2002,0.2066,0.208,0.2155,0.21,0.2124,0.2186,0.2205,0.2298,0.2193,0.229,0.2293,0.2278,0.2485,0.2518,0.2677,0.2416,0.242,0.2423,0,0.1775,0.1827,0.1978,0.2013,0.2043,0.2113,0.2174,0.2235,0.2279,0.2283,0.2327,0.2308,0.24,0.2325,0.2453,0.2381,0.2419,0.2435,0.2441,0.2451,0.2368,0.2503,0.2728,0.2752,0.2458,0.2455,0.2452,0,0.1924,0.2031,0.2135,0.216,0.2204,0.2254,0.2275,0.2314,0.2356,0.2411,0.2438,0.2504,0.2541,0.2593,0.2593,0.2539,0.2722,0.2648,0.273,0.273,0.2773,0.2771,0.3009,0.2796,0.2795,0.2795,0.2794,0,0.2114,0.2208,0.2202,0.2266,0.237,0.2356,0.2461,0.2477,0.2511,0.2579,0.2549,0.2614,0.2609,0.2676,0.2677,0.2782,0.2799,0.2806,0.2806,0.281,0.2809,0.2837,0.2826,0.2801,0.28,0.2798,0.2797,0,0.2299,0.2298,0.2408,0.2439,0.2448,0.2524,0.2552,0.2613,0.262,0.2706,0.2726,0.2739,0.2815,0.2819,0.2908,0.2909,0.3037,0.3024,0.3021,0.3019,0.3101,0.3094,0.3367,0.3402,0.3165,0.3167,0.3169,0,0.2421,0.2492,0.2528,0.2569,0.2592,0.266,0.2701,0.2689,0.2734,0.2787,0.2843,0.2914,0.2972,0.3096,0.3115,0.3182,0.3171,0.3262,0.3182,0.3183,0.3174,0.317,0.3177,0.3279,0.3281,0.3284,0.3285,0,0.2639,0.2633,0.2691,0.2749,0.2797,0.2844,0.2886,0.2923,0.2916,0.2968,0.3043,0.3087,0.3175,0.3247,0.3312,0.3337,0.3312,0.3309,0.3332,0.3338,0.3334,0.3338,0.3065,0.3304,0.3302,0.3301,0.33,0.3299,0.2797,0.2857,0.2891,0.2956,0.2986,0.3025,0.3084,0.3096,0.3157,0.3225,0.3215,0.3299,0.3339,0.3423,0.3453,0.3519,0.3489,0.3522,0.3531,0.3539,0.3548,0.3321,0.3531,0.3531,0.353,0.353,0.3529,0,0.3013,0.3031,0.3091,0.3149,0.3201,0.3166,0.3211,0.3257,0.333,0.3368,0.3423,0.3509,0.3578,0.36,0.3668,0.3717,0.3707,0.3735,0.3733,0.3739,0.3571,0.3545,0.3742,0.3742,0.3742,0.3742,0.3742,0.3742,0.3131,0.3231,0.3229,0.3343,0.3362,0.3441,0.3469,0.3506,0.3535,0.3631,0.3687,0.3699,0.3731,0.38,0.3862,0.3867,0.3894,0.3928,0.3928,0.3772,0.3751,0.373,0.3706,0.3933,0.3934,0.409,0.4092,0.4093]}]]